Wetbulb
44.54 44.66 45.86 46.28 47.28 48.86 49.19 48.44 47.28 46.69 47.12 47.87 47.63 47.07 46.20 45.71 44.44 39.41 35.60 36.81 33.25 25.82 29.29 32.02 34.17 32.71 32.48 28.74 25.25 28.58 30.15 32.18 31.97 28.07 24.97 20.79 22.86 27.33 27.62 29.48 30.63 31.25 30.71 29.72 31.13 27.94 25.65 33.35 40.08 36.34 37.98 32.64 34.55 36.59
44.25 44.78 45.46 46.59 46.37 46.37 48.26 47.90 47.65 48.05 47.85 47.52 46.84 46.17 45.70 45.05 44.20 40.50 34.62 37.75 36.91 31.00 31.35 35.10 35.18 36.27 35.31 35.09 32.52 32.30 28.81 31.28 31.76 30.10 29.43 30.38 29.85 30.96 28.20 25.18 34.32 29.83 34.22 31.04 33.29 31.81 32.87 37.06 33.35 35.95 34.98 34.85 34.17 35.08
44.37 44.09 44.83 45.38 45.18 45.33 47.18 47.25 47.35 47.22 47.08 46.34 46.20 46.08 45.60 44.56 43.93 40.25 35.05 35.16 33.67 30.28 31.06 30.06 31.12 35.50 37.55 37.12 37.49 34.64 34.16 37.68 36.72 37.56 33.65 33.27 30.22 29.17 27.40 27.32 31.25 32.62 28.90 32.61 32.07 29.96 29.04 30.79 33.57 33.71 35.16 34.64 34.03 34.26
44.32 44.26 44.46 44.67 44.56 44.56 44.10 46.25 46.38 46.39 45.73 45.14 45.09 44.46 44.07 43.60 42.91 39.79 34.20 33.89 32.15 25.98 19.73 26.00 37.28 33.63 37.16 37.89 36.80 36.55 35.38 36.40 35.86 36.62 31.97 31.79 30.64 32.31 29.43 29.44 29.49 19.61 22.03 23.68 28.72 26.42 28.86 31.35 28.18 28.55 32.51 32.72 32.35 32.00
44.32 44.46 44.37 44.58 44.75 45.11 44.75 44.58 44.54 44.56 44.28 43.91 44.00 43.72 43.08 42.15 40.80 36.95 34.36 33.90 34.25 28.02 19.96 27.35 29.83 31.28 33.17 36.58 35.81 36.16 35.11 33.62 31.96 31.43 30.07 30.22 32.30 31.11 29.91 23.75 10.96 12.69 9.29 14.78 20.21 17.63 18.68 27.26 26.53 27.52 28.45 27.89 28.65 29.54
43.98 44.37 44.58 44.48 44.61 43.95 43.61 44.05 43.76 43.55 43.28 43.36 43.27 42.70 42.30 41.77 39.91 32.23 26.53 31.86 34.73 32.76 24.11 17.20 26.42 30.54 29.85 33.64 35.00 34.77 34.67 33.16 31.96 31.77 31.96 31.77 31.37 27.90 23.18 9.58 8.85 9.08 9.65 11.32 12.26 14.76 15.78 21.36 24.08 24.80 25.35 24.16 24.07 25.68
43.65 43.93 44.41 44.09 43.75 43.48 43.71 43.57 42.89 42.71 42.91 42.83 42.95 42.73 42.44 40.74 35.35 30.00 25.97 32.97 37.08 32.75 21.60 22.68 17.69 24.94 28.71 31.00 32.33 31.77 32.53 31.97 31.59 31.79 30.66 28.28 15.72 18.08 11.00 3.57 3.79 3.88 4.24 7.96 10.74 11.23 20.84 19.06 16.50 18.93 23.05 22.33 21.49 20.16
42.71 43.25 42.95 42.63 42.88 43.16 42.97 42.75 42.20 42.16 42.38 42.52 42.18 41.71 40.94 39.95 36.50 28.56 30.70 37.82 34.04 26.21 19.38 11.40 16.20 18.49 26.36 20.65 21.39 31.70 29.92 31.77 30.09 28.22 21.95 16.52 7.00 5.39 -4.91 -0.38 1.05 0.70 1.52 7.71 4.31 7.94 13.74 16.17 14.48 13.40 15.47 18.26 16.12 15.59
41.25 40.53 40.79 40.88 40.73 40.63 40.45 40.29 40.18 39.91 39.90 40.87 40.18 37.58 32.13 28.35 24.52 24.25 37.41 35.20 28.03 23.83 10.79 10.85 11.53 10.90 23.49 22.71 24.71 25.50 30.46 25.05 27.44 19.30 12.26 8.73 -1.58 -10.99 -4.66 -2.86 -3.12 -2.15 -2.42 -1.00 2.16 9.46 8.44 9.74 9.32 8.34 8.35 9.51 11.55 11.13
38.73 39.15 39.73 40.06 39.92 39.79 39.61 39.57 39.18 39.15 39.15 38.25 29.82 23.14 20.75 21.85 34.90 32.12 22.36 18.37 16.70 10.38 11.04 16.74 15.21 15.58 23.34 19.93 16.20 21.01 25.97 22.34 18.61 15.50 10.56 -0.70 -4.72 -0.08 -1.33 -1.43 -1.78 -1.89 -1.35 0.07 -1.35 0.36 0.95 2.41 6.29 5.64 4.24 4.99 6.47 7.81
37.45 37.67 38.08 38.73 39.56 39.43 39.01 38.35 37.57 36.34 34.12 23.74 16.08 17.20 24.29 29.14 22.11 12.83 8.60 9.03 4.74 4.04 4.75 3.95 10.67 15.25 22.29 13.86 12.55 23.97 18.31 21.37 14.26 13.43 8.00 -1.49 -5.32 -2.58 -2.21 -2.93 -2.22 -1.58 -1.73 -0.75 -0.16 1.78 1.96 1.98 2.81 4.69 4.82 4.47 4.06 4.96
36.61 36.55 36.62 37.00 37.48 37.76 37.53 38.07 36.51 27.77 20.19 22.45 21.32 18.63 15.25 10.81 9.12 8.06 -5.52 0.68 0.86 -2.07 1.59 0.07 4.25 12.43 15.27 22.99 16.69 18.47 16.33 17.34 8.27 11.89 5.26 -2.81 -1.92 -3.43 -4.58 -5.14 -4.41 -3.17 -3.50 -2.81 -0.83 -0.63 0.92 0.49 0.38 1.63 1.99 3.21 3.87 5.07
35.14 35.40 35.44 35.21 35.27 35.38 35.01 35.20 34.53 33.83 25.69 17.22 11.38 5.17 8.12 -0.97 0.01 -6.00 -11.50 -5.41 -5.57 0.13 0.30 0.06 -0.70 4.91 11.30 20.74 12.64 12.90 8.93 9.03 12.54 1.73 -3.37 -3.75 -3.53 -4.16 -5.46 -5.45 -5.49 -3.84 -3.84 -3.15 -2.63 -1.04 -0.14 0.23 0.03 -0.82 -0.63 1.12 2.70 2.51
34.52 34.40 33.78 34.09 33.46 32.78 32.35 30.60 30.22 24.19 12.70 3.11 0.49 -2.01 -5.88 -11.56 -12.94 -14.76 -12.42 -11.86 -2.31 2.46 -1.06 0.69 -2.66 -0.32 4.70 11.22 11.23 5.39 9.30 9.58 1.08 -2.22 -2.86 -4.20 -5.50 -5.98 -5.62 -5.60 -6.32 -6.52 -5.43 -4.71 -4.16 -2.76 -1.88 -0.99 -0.46 -0.65 -0.47 0.24 1.28 0.75
32.45 32.38 32.96 31.24 32.45 31.40 29.76 27.68 23.79 6.95 2.34 -4.49 -1.55 -9.14 -9.50 -6.69 -6.79 -7.51 -7.71 -8.80 -2.89 -1.14 -0.53 0.97 2.40 8.69 -1.85 1.02 2.56 5.19 0.92 -7.69 -6.65 -5.21 -7.72 -5.72 -5.96 -6.16 -7.25 -7.07 -6.88 -6.87 -6.33 -5.61 -4.51 -3.99 -2.76 -1.70 -0.46 -0.99 -1.01 -0.12 0.57 1.11
29.83 27.33 26.79 31.42 29.12 29.85 26.62 16.81 7.90 2.55 -3.90 -4.64 -6.95 -8.48 -10.22 -8.97 -9.11 -8.31 -8.61 -5.54 -0.41 -0.86 -0.27 0.78 -0.72 -0.60 -2.48 -8.32 -5.41 -12.40 -4.83 -4.84 -6.32 -14.94 -9.14 -5.23 -6.34 -6.35 -7.23 -7.06 -6.51 -5.96 -5.78 -5.41 -4.34 -3.45 -2.57 -2.58 -1.86 -1.13 -0.64 -1.18 0.23 0.24
26.39 13.25 29.41 30.65 27.52 23.61 24.76 6.01 3.42 -4.04 -5.08 -6.61 -7.18 -16.03 -14.22 -13.86 -9.00 -7.15 -5.87 -1.86 1.73 -1.32 3.14 3.18 1.88 -4.08 -1.85 -7.18 -13.70 -13.86 -11.13 -12.04 -12.94 -11.69 -7.51 -5.77 -6.56 -6.87 -6.51 -6.69 -5.97 -5.79 -5.61 -5.42 -4.68 -3.45 -3.10 -1.69 -0.62 -2.07 -3.67 -3.12 -0.64 0.06
12.53 18.41 28.98 27.94 13.91 13.48 1.41 1.29 -0.38 -1.53 -6.55 -6.25 -4.29 -9.40 -9.70 -9.71 -8.64 -9.97 -7.77 -2.51 -2.22 -2.73 -1.56 -3.43 0.32 -7.25 -9.73 -10.30 -14.05 -13.32 -12.76 -11.88 -8.42 -7.18 -5.32 -5.80 -5.62 -5.60 -5.96 -7.04 -6.16 -5.60 -6.33 -5.60 -4.68 -3.63 -3.13 -3.18 -3.29 -4.51 -4.09 -4.09 -2.73 -2.89
20.92 23.15 25.89 25.70 15.47 3.43 2.43 0.32 -0.50 -6.37 -12.22 -14.21 -12.43 -12.26 -13.67 -14.58 -12.98 -8.00 -9.93 -6.32 -5.08 -7.50 -7.70 -6.70 -8.66 -13.71 -13.92 -14.45 -18.93 -16.21 -14.39 -12.95 -10.48 -8.80 -8.08 -7.03 -6.48 -7.92 -8.65 -7.77 -7.43 -6.66 -7.74 -7.53 -6.77 -6.02 -4.62 -4.33 -4.20 -5.18 -5.92 -5.97 -6.77 -6.40
24.40 25.84 24.92 21.40 16.28 4.21 -0.68 -4.60 -4.19 -3.95 -11.02 -8.77 -16.43 -15.22 -17.66 -15.14 -16.05 -22.20 -18.12 -12.86 -10.46 -13.00 -11.69 -13.14 -17.87 -18.48 -15.77 -13.96 -15.91 -15.92 -15.53 -14.04 -16.23 -14.15 -8.32 -7.84 -9.60 -13.00 -12.15 -13.84 -11.22 -10.84 -10.55 -10.26 -9.02 -6.62 -7.28 -6.67 -6.60 -8.24 -10.01 -10.37 -11.44 -10.87
16.67 16.40 19.08 7.72 0.03 -3.64 -8.87 -12.80 -9.01 -12.76 -14.42 -10.92 -19.47 -16.23 -13.16 -17.96 -19.94 -20.20 -18.45 -17.37 -12.58 -14.64 -12.26 -17.15 -17.71 -16.32 -20.05 -21.11 -19.11 -19.65 -15.32 -16.23 -17.16 -17.22 -17.77 -18.07 -17.05 -16.63 -14.95 -15.87 -17.75 -18.99 -18.25 -15.99 -16.02 -13.19 -13.27 -13.83 -11.95 -11.54 -13.94 -13.95 -15.58 -14.20
5.84 17.40 3.59 8.87 1.12 -4.31 -7.09 -11.32 -9.58 -12.02 -10.51 -15.92 -13.89 -19.89 -19.32 -16.21 -19.02 -18.82 -16.81 -11.06 -19.31 -18.85 -22.60 -21.87 -23.65 -24.55 -24.58 -22.71 -23.18 -28.00 -27.46 -30.89 -32.34 -27.99 -20.82 -20.23 -20.40 -19.77 -20.50 -22.98 -25.09 -23.49 -23.33 -19.28 -19.61 -18.02 -16.29 -14.53 -15.45 -15.62 -18.59 -15.67 -15.16 -16.68
9.19 8.50 0.57 0.15 0.60 -3.69 -10.53 -11.48 -11.09 -15.06 -9.65 -11.56 -16.44 -12.62 -16.22 -21.55 -20.18 -15.07 -14.09 -25.33 -20.25 -23.17 -29.08 -28.72 -29.81 -34.34 -29.80 -33.98 -36.52 -33.26 -34.34 -32.71 -29.62 -27.82 -26.57 -25.86 -24.98 -24.09 -21.73 -18.07 -24.38 -25.46 -18.45 -13.69 -22.65 -23.35 -18.77 -16.69 -16.44 -16.95 -18.70 -17.82 -20.79 -16.31
2.62 -10.53 -10.53 -12.59 -9.36 -14.15 -15.75 -14.32 -15.61 -15.84 -17.73 -17.53 -19.04 -15.50 -16.22 -23.84 -18.39 -13.22 -13.31 -23.93 -18.67 -30.35 -28.35 -28.22 -33.25 -27.00 -29.46 -31.09 -29.08 -28.95 -29.14 -29.67 -31.80 -32.71 -31.44 -33.61 -27.63 -21.67 -25.72 -21.47 -23.58 -20.59 -16.41 -14.48 -18.35 -16.78 -17.82 -17.65 -16.82 -20.79 -19.96 -21.36 -21.04 -19.79
1.21 -13.49 -14.12 -15.49 -20.55 -14.34 -17.08 -17.08 -18.05 -13.63 -21.14 -28.54 -19.37 -16.04 -18.12 -28.17 -15.92 -17.27 -12.95 -14.21 -24.03 -26.36 -26.92 -35.97 -35.24 -29.46 -23.09 -28.03 -26.96 -26.60 -33.25 -26.08 -25.69 -26.41 -22.38 -23.46 -28.73 -28.18 -22.50 -21.09 -17.98 -15.76 -19.32 -25.10 -22.42 -21.92 -20.92 -25.68 -25.33 -23.02 -20.06 -20.93 -18.32 -17.44
-14.84 -26.32 -18.64 -30.76 -21.58 -16.07 -25.26 -17.75 -25.11 -23.84 -29.81 -21.58 -22.14 -26.92 -31.62 -22.85 -13.81 -9.74 -13.66 -14.87 -19.69 -19.13 -22.63 -19.48 -18.14 -26.57 -27.82 -21.80 -22.67 -24.05 -17.44 -23.75 -28.95 -27.15 -19.91 -23.27 -21.67 -20.24 -21.12 -20.55 -16.77 -10.65 -19.77 -17.24 -21.28 -22.31 -17.79 -17.26 -19.87 -19.37 -16.36 -15.83 -15.09 -16.59
-8.88 -16.62 -28.83 -34.90 -30.41 -30.77 -27.77 -33.10 -34.54 -28.64 -23.28 -17.08 -23.29 -24.05 -22.43 -14.16 -14.34 -7.84 -14.78 -17.34 -13.61 -12.72 -13.25 -12.90 -11.95 -11.76 -11.74 -20.94 -19.50 -20.88 -31.08 -22.51 -17.85 -17.10 -24.27 -24.84 -20.09 -17.99 -15.22 -15.38 -14.90 -11.64 -22.63 -23.01 -23.51 -22.79 -18.57 -16.85 -16.80 -15.36 -14.40 -12.69 -13.55 -14.40
-24.41 -30.24 -13.79 -26.13 -28.82 -36.33 -25.08 -32.75 -27.40 -20.11 -21.43 -31.29 -27.55 -17.04 -13.78 -9.61 -5.68 -6.38 -6.53 -12.94 -18.02 -25.82 -24.75 -26.19 -20.69 -16.17 -16.72 -14.50 -19.69 -23.76 -26.23 -28.90 -28.00 -25.14 -20.39 -15.20 -14.33 -13.62 -14.98 -13.98 -11.95 -4.19 -9.75 -13.33 -15.50 -16.55 -18.27 -17.03 -15.78 -13.45 -12.68 -12.68 -11.39 -10.69
-25.62 -37.24 -30.24 -22.22 -30.20 -29.89 -25.64 -18.64 -19.69 -25.42 -28.58 -27.55 -18.80 -17.76 -14.50 -14.55 -16.72 -20.40 -17.58 -23.67 -32.70 -23.86 -19.42 -18.42 -13.22 -28.01 -24.95 -25.85 -25.30 -22.63 -22.29 -23.14 -19.52 -16.57 -16.74 -10.98 -15.22 -7.60 -14.54 -15.60 -16.28 -17.32 -17.29 -17.41 -11.13 -4.42 -7.14 -7.87 -7.71 -7.84 -7.26 -7.83 -7.62 -7.51
-26.26 -40.32 -26.45 -31.91 -21.21 -14.33 -21.78 -31.66 -31.86 -42.13 -43.76 -39.05 -40.50 -31.32 -26.88 -24.76 -22.61 -27.17 -29.12 -29.64 -21.70 -14.59 -11.90 -15.28 -19.97 -17.96 -14.68 -18.32 -16.61 -17.68 -20.68 -17.23 -13.93 -9.10 -9.72 -6.39 -5.56 -13.18 -20.47 -20.44 -16.75 -13.65 -14.30 -16.85 -13.44 -12.27 -7.13 -8.41 -9.70 -15.36 -16.22 -13.46 -13.12 -12.65
-37.24 -37.43 -28.30 -30.07 -21.75 -28.47 -37.78 -46.30 -49.19 -47.19 -46.29 -47.02 -49.92 -40.50 -32.21 -31.32 -29.15 -24.58 -20.21 -15.70 -16.62 -24.24 -20.79 -15.28 -18.02 -21.95 -18.85 -17.29 -17.80 -19.73 -7.62 -12.56 -14.34 -12.35 -9.09 -7.43 -11.55 -13.13 -10.26 -11.07 -10.70 -13.73 -16.07 -13.16 -11.01 -10.13 -9.63 -9.67 -10.05 -10.92 -10.79 -11.17 -11.29 -11.80
-35.44 -30.41 -24.02 -15.17 -16.72 -36.33 -40.86 -33.09 -33.63 -35.26 -40.49 -41.59 -36.69 -47.38 -38.47 -34.90 -24.34 -11.07 -19.61 -19.58 -20.06 -20.09 -12.45 -11.73 -12.81 -5.67 -8.32 -5.62 -11.75 -7.80 -6.80 -15.31 -14.64 -11.16 -12.80 -10.99 -10.43 -9.09 -7.70 -7.62 -11.15 -12.04 -10.08 -9.92 -10.11 -9.25 -9.28 -10.29 -10.85 -11.26 -11.30 -11.53 -12.11 -12.79
-33.64 -37.42 -36.34 -30.58 -21.01 -18.74 -27.89 -29.67 -23.84 -20.72 -23.86 -27.23 -25.81 -30.42 -31.32 -26.70 -14.18 -7.10 -16.15 -14.09 -11.15 -7.75 -6.44 -7.12 -5.55 -8.73 -7.34 -5.80 -5.59 -6.49 -6.20 -6.96 -7.69 -0.24 1.39 0.28 -2.36 -2.46 -5.04 -7.65 -8.65 -8.28 -9.32 -9.88 -10.09 -9.74 -10.25 -9.55 -8.54 -8.10 -8.37 -10.46 -11.51 -11.72
MSLP
994.89 994.55 993.88 993.40 993.26 993.18 993.82 994.71 995.81 996.70 997.22 998.14 999.14 1000.04 1000.84 1001.43 1001.48 1001.68 1004.41 1004.29 1004.51 1007.92 1009.87 1009.97 1010.12 1010.42 1010.92 1011.60 1012.55 1013.02 1013.61 1013.47 1013.30 1013.46 1013.46 1012.95 1012.43 1011.35 1011.05 1010.10 1008.95 1009.01 1010.37 1009.80 1009.61 1008.85 1007.42 1005.07 1005.42 1004.30 1003.72 1003.25 1003.18 1003.49
995.76 995.44 995.02 994.53 994.59 994.87 995.24 996.13 996.94 997.42 998.21 999.01 999.57 1000.29 1001.05 1001.46 1001.73 1002.16 1004.82 1005.29 1005.23 1007.37 1010.25 1010.49 1010.85 1011.29 1011.38 1011.31 1011.15 1011.78 1011.77 1011.63 1011.42 1012.08 1012.05 1011.59 1011.17 1010.78 1009.83 1009.55 1009.05 1009.17 1008.96 1008.87 1008.26 1006.66 1006.44 1005.79 1005.48 1004.92 1004.46 1004.29 1004.31 1004.51
996.88 996.97 996.75 996.36 996.36 996.56 996.37 997.10 997.60 998.47 999.22 999.91 1000.53 1000.94 1001.47 1001.97 1002.50 1002.92 1005.12 1005.76 1006.33 1008.85 1010.78 1011.07 1011.32 1011.51 1011.52 1011.40 1011.21 1011.46 1011.62 1011.10 1011.01 1010.86 1011.18 1010.73 1010.53 1010.08 1009.65 1009.15 1008.68 1008.98 1010.23 1009.45 1008.97 1008.55 1008.13 1007.62 1007.23 1007.08 1006.45 1005.58 1005.88 1005.59
997.87 998.03 998.19 998.19 998.38 998.61 998.87 998.79 999.32 1000.00 1000.60 1001.33 1001.82 1002.23 1002.72 1003.19 1003.48 1003.62 1005.46 1006.53 1006.87 1008.64 1010.72 1011.88 1011.51 1011.56 1011.48 1011.55 1011.52 1011.45 1011.59 1011.56 1011.58 1011.55 1011.29 1010.74 1010.22 1009.38 1009.55 1009.92 1011.56 1013.60 1012.72 1012.08 1011.19 1010.70 1010.17 1009.45 1010.46 1010.44 1008.53 1007.80 1007.17 1006.67
999.55 999.65 999.51 999.60 999.76 1000.04 1000.48 1000.76 1001.18 1001.74 1002.25 1002.65 1002.97 1003.22 1003.66 1004.22 1004.53 1005.11 1006.22 1007.41 1007.50 1008.43 1010.53 1011.79 1011.95 1011.63 1011.57 1011.33 1011.34 1011.55 1011.63 1011.71 1011.86 1011.61 1011.29 1010.87 1010.35 1010.65 1011.09 1013.02 1016.53 1017.83 1017.99 1017.09 1015.76 1015.66 1015.06 1013.23 1013.45 1012.15 1010.78 1010.20 1009.87 1009.14
1000.86 1000.76 1000.62 1000.95 1001.32 1001.61 1001.97 1002.48 1002.96 1003.23 1003.53 1003.92 1004.04 1004.25 1004.63 1005.01 1005.27 1005.44 1007.13 1007.87 1008.02 1008.46 1010.08 1012.10 1012.23 1011.74 1011.51 1011.44 1011.36 1011.21 1011.48 1011.75 1011.89 1011.58 1011.32 1011.13 1011.79 1012.41 1013.46 1017.03 1020.66 1021.44 1021.50 1021.20 1019.09 1018.20 1017.09 1015.68 1015.26 1014.10 1013.02 1012.23 1012.29 1011.90
1002.17 1002.21 1002.29 1002.67 1002.96 1003.14 1003.46 1003.91 1004.22 1004.50 1004.64 1004.89 1005.13 1005.34 1005.58 1005.79 1005.96 1007.49 1008.95 1009.26 1008.70 1008.86 1010.16 1012.60 1012.87 1012.37 1012.44 1012.11 1011.75 1011.68 1011.54 1011.53 1011.76 1011.72 1011.92 1012.83 1014.64 1014.84 1017.73 1021.51 1023.74 1024.10 1023.82 1022.77 1021.68 1019.83 1017.76 1017.57 1017.11 1016.31 1015.08 1014.52 1014.89 1014.78
1003.69 1003.68 1003.99 1004.24 1004.37 1004.64 1004.99 1005.31 1005.56 1005.80 1006.00 1006.19 1006.41 1006.53 1006.85 1007.08 1007.55 1008.54 1009.34 1009.08 1009.06 1009.59 1010.74 1013.65 1014.09 1013.76 1012.85 1012.62 1012.35 1012.05 1011.84 1011.68 1011.98 1012.41 1013.97 1015.77 1018.31 1020.04 1023.66 1025.92 1026.34 1026.27 1025.37 1023.75 1023.54 1022.56 1021.27 1019.93 1019.05 1017.82 1016.63 1017.03 1017.39 1017.48
1005.64 1005.92 1006.19 1006.26 1006.31 1006.38 1006.49 1006.77 1006.83 1006.92 1006.97 1007.20 1007.36 1007.59 1007.58 1008.31 1009.55 1010.30 1009.78 1009.62 1009.85 1010.92 1013.32 1014.97 1015.71 1015.02 1013.53 1013.23 1012.73 1012.13 1011.83 1012.08 1012.72 1014.20 1016.75 1018.56 1022.84 1025.89 1028.25 1028.59 1028.76 1028.51 1027.90 1026.92 1024.98 1023.45 1022.61 1021.82 1021.37 1020.32 1019.54 1019.82 1019.76 1019.65
1007.91 1007.86 1007.72 1007.59 1007.56 1007.48 1007.42 1007.28 1007.20 1007.25 1007.59 1007.79 1008.34 1009.02 1010.26 1010.98 1010.59 1010.24 1010.58 1011.31 1012.24 1014.57 1015.73 1017.20 1016.97 1015.72 1014.60 1013.94 1013.37 1012.69 1012.33 1012.85 1014.01 1016.65 1018.95 1022.64 1026.72 1028.94 1029.96 1030.24 1029.90 1029.78 1029.46 1028.12 1026.21 1024.77 1024.09 1023.66 1023.28 1022.78 1022.05 1022.24 1022.23 1021.83
1009.52 1009.28 1009.05 1008.82 1008.47 1008.30 1008.07 1007.82 1007.70 1007.79 1008.03 1008.97 1010.49 1011.67 1011.54 1011.18 1011.36 1012.94 1014.96 1016.27 1017.73 1019.04 1019.83 1019.69 1018.62 1017.18 1015.30 1015.09 1014.39 1013.92 1014.00 1014.22 1015.71 1018.00 1020.29 1025.09 1028.00 1029.90 1031.13 1031.19 1030.92 1030.60 1029.81 1028.98 1028.18 1027.12 1026.67 1026.26 1025.49 1024.90 1024.32 1023.91 1023.47 1023.00
1010.75 1010.77 1010.64 1010.36 1010.08 1009.70 1009.25 1008.85 1008.46 1008.59 1010.14 1010.51 1011.15 1012.35 1013.08 1014.83 1015.75 1017.09 1020.15 1020.94 1021.90 1023.32 1022.51 1021.97 1020.59 1019.14 1017.16 1015.92 1015.58 1015.08 1015.58 1015.95 1018.08 1019.61 1022.28 1026.74 1029.41 1031.21 1031.62 1031.24 1030.92 1030.77 1030.39 1029.78 1029.02 1028.55 1027.88 1027.33 1026.82 1026.39 1025.84 1025.10 1024.52 1024.09
1011.95 1011.63 1011.44 1011.33 1011.08 1010.85 1010.56 1010.19 1009.96 1010.03 1010.46 1011.34 1012.79 1015.81 1017.72 1020.09 1021.38 1022.92 1024.89 1025.13 1025.22 1025.00 1024.69 1023.97 1022.26 1020.95 1018.68 1017.23 1017.17 1016.92 1017.58 1018.57 1019.57 1022.14 1026.03 1028.88 1030.57 1031.57 1032.00 1031.98 1031.96 1031.69 1031.22 1030.60 1029.95 1029.10 1028.56 1028.12 1027.78 1027.26 1026.92 1026.43 1025.86 1025.28
1013.22 1012.92 1012.67 1012.26 1011.81 1011.45 1011.24 1010.98 1010.84 1011.04 1012.10 1016.28 1018.71 1021.48 1023.95 1025.51 1026.65 1027.45 1027.71 1027.72 1026.97 1026.19 1025.91 1025.30 1023.94 1022.57 1020.67 1019.54 1019.28 1019.45 1020.34 1020.80 1023.23 1026.07 1028.36 1030.18 1031.71 1032.43 1032.82 1032.90 1032.58 1032.37 1031.87 1031.33 1030.46 1029.73 1029.38 1029.01 1028.66 1028.39 1028.13 1027.69 1027.03 1026.42
1013.92 1013.70 1013.21 1012.97 1012.68 1012.52 1012.34 1012.26 1012.19 1013.29 1017.42 1021.15 1022.74 1026.66 1028.08 1028.60 1028.55 1028.69 1028.79 1028.46 1027.92 1027.29 1026.64 1025.53 1024.36 1023.26 1022.57 1022.07 1022.41 1022.19 1023.45 1025.80 1027.76 1029.38 1030.88 1032.14 1032.71 1033.23 1033.55 1033.60 1033.35 1032.67 1032.15 1031.56 1031.04 1030.54 1030.27 1029.86 1029.60 1029.33 1028.93 1028.38 1027.80 1027.48
1014.07 1014.13 1014.43 1013.99 1013.87 1013.16 1012.86 1013.19 1014.27 1017.28 1022.02 1024.75 1027.55 1029.16 1029.85 1029.95 1030.05 1029.66 1029.53 1029.04 1028.24 1027.68 1027.07 1026.40 1025.26 1024.77 1025.38 1025.68 1026.13 1027.66 1027.91 1029.23 1030.81 1032.02 1032.66 1033.18 1033.64 1033.84 1033.93 1033.78 1033.59 1033.30 1032.74 1032.11 1031.58 1031.11 1030.81 1030.45 1030.19 1030.05 1029.76 1029.23 1028.86 1028.62
1014.67 1015.92 1015.30 1014.58 1014.65 1014.68 1014.33 1015.80 1018.61 1022.49 1025.52 1028.00 1030.35 1030.89 1031.03 1031.38 1031.40 1030.64 1030.19 1029.55 1028.89 1028.17 1027.29 1026.56 1026.55 1027.65 1027.70 1028.85 1030.64 1031.51 1031.85 1032.37 1033.04 1033.71 1033.98 1034.12 1034.14 1034.19 1034.26 1034.09 1034.08 1033.75 1033.05 1032.55 1032.07 1031.74 1031.59 1031.32 1031.03 1030.82 1030.52 1030.28 1029.92 1029.57
1016.78 1016.84 1015.53 1015.04 1015.31 1015.58 1017.48 1019.34 1022.48 1025.74 1029.19 1030.56 1031.25 1031.99 1032.23 1031.90 1031.82 1031.29 1030.83 1030.15 1029.47 1028.90 1028.32 1028.61 1028.58 1029.79 1031.51 1032.40 1033.56 1033.89 1034.18 1034.21 1034.17 1034.32 1034.29 1034.30 1034.46 1034.59 1034.62 1034.56 1034.29 1033.95 1033.68 1033.31 1032.91 1032.60 1032.38 1032.08 1031.87 1031.86 1031.61 1031.33 1030.73 1030.43
1017.17 1016.66 1016.25 1015.68 1015.78 1017.69 1021.30 1023.80 1025.01 1028.75 1031.36 1032.08 1032.09 1032.32 1032.41 1032.42 1032.06 1031.71 1031.50 1030.78 1030.38 1030.26 1030.18 1030.52 1031.73 1033.44 1034.52 1034.97 1035.38 1035.73 1035.85 1035.84 1035.66 1035.35 1035.09 1035.00 1035.14 1035.42 1035.41 1035.10 1034.91 1034.68 1034.50 1034.20 1033.84 1033.52 1033.19 1032.91 1032.75 1032.62 1032.40 1032.14 1031.84 1031.32
1017.13 1017.02 1016.73 1016.80 1016.34 1019.80 1024.51 1027.39 1027.75 1029.66 1032.22 1032.82 1032.84 1033.10 1033.59 1033.49 1033.36 1033.01 1032.53 1031.99 1031.70 1031.92 1032.95 1034.32 1035.89 1036.20 1036.52 1036.74 1037.07 1037.21 1037.24 1037.21 1037.25 1036.77 1036.15 1035.86 1035.89 1036.08 1036.21 1036.27 1035.97 1035.64 1035.35 1034.89 1034.52 1034.18 1033.84 1033.45 1033.17 1033.10 1032.97 1032.72 1032.49 1032.11
1017.68 1018.18 1017.79 1018.02 1020.94 1023.74 1028.34 1030.49 1031.23 1032.13 1032.73 1033.48 1033.90 1034.22 1034.20 1033.92 1034.17 1034.06 1033.64 1033.11 1033.18 1035.23 1036.55 1037.14 1037.52 1037.53 1037.65 1037.86 1037.99 1038.16 1038.07 1038.04 1038.01 1037.90 1037.56 1037.27 1037.06 1037.18 1037.00 1036.84 1036.59 1036.42 1036.24 1035.58 1035.20 1034.61 1034.50 1034.17 1033.57 1033.31 1033.20 1032.97 1032.75 1032.47
1020.18 1019.53 1020.13 1020.83 1024.21 1026.98 1029.89 1031.83 1032.59 1032.85 1033.44 1034.27 1034.49 1035.18 1036.14 1036.24 1036.05 1035.07 1034.74 1034.49 1036.82 1037.52 1037.86 1038.14 1038.58 1038.73 1038.94 1038.84 1038.81 1038.75 1038.53 1038.57 1038.61 1038.52 1038.12 1038.01 1037.92 1037.51 1037.27 1037.22 1037.08 1036.53 1036.09 1035.61 1035.42 1035.22 1034.66 1033.98 1033.64 1033.44 1033.34 1032.88 1032.49 1032.17
1021.08 1021.29 1023.90 1025.47 1027.48 1029.98 1033.19 1032.59 1033.50 1034.63 1035.38 1035.99 1035.90 1036.83 1037.41 1037.08 1036.23 1035.57 1036.09 1037.14 1037.44 1037.41 1038.28 1038.82 1038.97 1039.12 1039.35 1039.14 1039.06 1038.88 1038.79 1039.22 1039.37 1039.06 1038.70 1038.66 1038.27 1037.85 1037.46 1036.60 1036.05 1036.03 1035.28 1034.22 1034.02 1034.01 1033.85 1033.33 1033.30 1033.28 1033.09 1032.42 1032.03 1031.63
1023.77 1027.57 1030.18 1031.57 1033.11 1035.04 1034.66 1035.38 1036.02 1036.64 1036.94 1037.84 1038.60 1038.76 1038.78 1038.20 1036.82 1036.17 1037.18 1037.87 1037.08 1037.60 1038.38 1038.59 1038.88 1039.14 1039.27 1039.22 1038.91 1038.27 1038.37 1038.58 1038.95 1038.70 1038.16 1038.49 1038.03 1036.97 1036.28 1035.81 1035.33 1035.20 1035.00 1034.43 1034.52 1034.34 1033.90 1033.58 1033.49 1033.31 1032.73 1032.36 1032.10 1031.75
1027.53 1035.34 1036.09 1036.97 1037.43 1037.51 1038.40 1038.93 1038.88 1038.81 1040.07 1040.71 1040.17 1039.70 1039.26 1039.01 1037.85 1037.08 1036.99 1036.67 1036.91 1037.04 1037.56 1037.61 1037.96 1038.15 1038.50 1038.58 1037.73 1037.54 1037.38 1037.62 1038.10 1037.93 1036.68 1036.47 1036.49 1036.29 1035.68 1034.94 1034.43 1033.85 1033.59 1034.23 1034.26 1033.91 1033.55 1033.33 1033.03 1032.50 1032.01 1031.75 1031.42 1030.94
1033.94 1039.54 1040.58 1040.98 1041.05 1040.98 1041.53 1041.80 1041.94 1042.05 1042.03 1041.50 1040.84 1040.25 1039.52 1038.87 1037.90 1036.58 1035.41 1034.66 1035.36 1035.28 1035.97 1036.22 1036.33 1037.11 1037.39 1036.73 1036.63 1036.30 1036.02 1036.10 1036.85 1037.06 1035.73 1035.41 1035.41 1035.50 1035.13 1034.85 1034.18 1033.16 1032.58 1032.75 1033.14 1033.11 1032.78 1032.37 1032.06 1031.66 1031.12 1030.53 1030.18 1029.87
1038.34 1041.43 1042.54 1043.08 1042.92 1043.04 1043.12 1043.18 1043.23 1043.13 1042.64 1042.20 1041.64 1041.01 1040.17 1038.48 1036.50 1034.39 1032.81 1032.81 1033.41 1032.80 1032.80 1033.14 1033.85 1034.28 1034.38 1034.68 1034.99 1034.93 1034.83 1035.02 1034.82 1034.56 1034.11 1033.89 1033.73 1033.68 1033.83 1033.67 1032.79 1032.11 1031.88 1031.75 1031.83 1032.05 1031.83 1031.43 1031.04 1030.58 1029.98 1029.26 1028.99 1028.69
1041.20 1042.70 1043.38 1043.78 1043.65 1043.67 1043.68 1044.07 1044.35 1043.54 1042.95 1042.75 1042.59 1041.59 1039.54 1037.28 1034.46 1032.41 1031.57 1031.54 1031.86 1032.00 1032.24 1032.74 1032.48 1032.65 1032.86 1033.01 1033.41 1033.91 1034.21 1034.18 1034.21 1033.98 1033.39 1032.61 1032.02 1031.95 1031.86 1031.72 1031.29 1030.45 1030.75 1030.91 1030.73 1030.59 1030.63 1030.47 1030.03 1029.52 1029.06 1028.47 1027.75 1027.33
1043.06 1043.70 1043.74 1043.87 1044.14 1044.19 1043.85 1043.85 1043.93 1043.46 1043.26 1043.27 1043.09 1041.23 1038.28 1035.38 1032.85 1031.90 1031.78 1032.20 1032.47 1032.50 1032.56 1032.47 1032.21 1032.25 1032.41 1032.36 1032.50 1032.60 1032.91 1033.54 1033.88 1033.19 1032.36 1031.64 1031.28 1030.44 1029.81 1030.02 1030.04 1030.05 1029.97 1029.69 1029.56 1028.69 1028.70 1028.61 1028.23 1027.83 1027.31 1026.92 1026.46 1026.08
1044.38 1044.77 1044.32 1043.89 1043.94 1043.39 1043.35 1044.00 1044.80 1044.81 1044.43 1044.21 1043.69 1041.68 1039.20 1035.63 1032.53 1031.61 1031.88 1032.08 1031.92 1031.09 1030.58 1030.67 1030.82 1031.37 1031.74 1031.93 1031.67 1031.38 1031.17 1031.22 1031.26 1031.14 1030.78 1030.16 1029.64 1028.96 1028.97 1029.10 1029.14 1029.05 1028.93 1028.76 1028.44 1027.93 1027.69 1027.51 1027.22 1027.06 1026.76 1026.46 1026.09 1025.63
1044.87 1044.88 1044.26 1043.84 1042.85 1042.94 1043.76 1044.51 1045.49 1045.48 1044.89 1044.74 1044.23 1043.46 1041.04 1037.79 1033.42 1030.08 1029.69 1029.17 1029.52 1030.00 1030.18 1030.16 1030.29 1030.20 1030.58 1030.68 1030.45 1030.04 1029.83 1029.05 1029.06 1028.98 1028.75 1028.47 1028.33 1028.32 1028.27 1028.17 1028.09 1028.25 1028.20 1028.06 1027.82 1027.46 1027.12 1026.85 1026.68 1026.42 1026.01 1025.61 1025.19 1024.90
1044.82 1044.96 1044.56 1043.78 1042.45 1043.11 1043.78 1044.03 1044.10 1044.08 1043.93 1043.76 1043.05 1042.56 1040.97 1039.55 1036.25 1029.57 1027.60 1028.09 1028.72 1028.86 1028.09 1028.37 1028.60 1027.90 1027.62 1027.68 1027.77 1027.79 1027.50 1027.53 1027.52 1027.73 1027.80 1027.70 1027.44 1027.21 1027.09 1026.96 1027.17 1027.37 1027.24 1027.09 1026.89 1026.61 1026.32 1026.12 1025.92 1025.66 1025.29 1024.87 1024.48 1024.05
1044.29 1044.53 1044.09 1043.59 1042.68 1042.46 1042.62 1042.71 1041.76 1041.12 1040.91 1040.66 1040.00 1039.71 1039.23 1037.86 1034.55 1028.78 1026.68 1026.41 1025.98 1025.96 1025.98 1026.08 1026.20 1026.48 1026.45 1026.48 1026.49 1026.47 1026.59 1026.53 1026.57 1026.32 1026.10 1026.13 1026.13 1026.00 1026.03 1026.24 1026.33 1026.12 1026.12 1026.09 1025.90 1025.77 1025.51 1025.35 1025.16 1024.89 1024.60 1024.32 1023.95 1023.53
Wind_Speed
21 23 23 22 23 19 27 29 32 25 27 28 28 26 23 16 11 8 2 5 6 5 2 3 2 4 4 4 6 5 5 3 3 8 5 5 5 8 4 6 7 9 6 11 10 7 15 8 20 23 11 1 3 2
24 25 27 27 27 24 26 28 28 29 29 27 24 22 19 20 17 9 5 3 6 9 4 3 3 3 3 2 5 6 5 5 5 5 5 4 4 4 5 6 4 6 9 5 12 8 2 8 6 3 0 2 2 4
24 27 28 30 32 31 26 29 30 29 27 25 23 22 20 16 14 10 4 3 5 5 3 3 2 1 1 1 3 4 2 2 3 2 2 4 8 4 6 7 4 5 4 4 3 2 6 11 8 14 7 3 2 2
23 26 29 32 33 32 30 29 30 28 27 26 25 24 22 20 17 11 6 2 5 4 6 2 1 1 2 3 1 2 2 2 2 1 3 3 4 2 2 3 2 2 9 6 1 6 3 9 16 15 11 9 8 8
26 25 27 27 27 28 29 28 28 27 25 23 23 24 24 25 25 15 6 5 4 5 5 3 1 1 2 2 3 4 2 1 2 3 3 4 2 2 2 4 6 8 6 5 4 9 8 5 14 16 10 11 11 8
26 27 28 27 26 27 28 27 26 24 23 21 21 21 20 12 7 4 6 5 5 3 6 3 3 3 5 3 3 6 6 3 2 3 3 2 3 4 3 4 8 11 11 10 8 17 14 14 6 17 11 13 13 13
26 27 27 26 25 26 25 24 23 22 22 20 16 13 13 16 7 7 4 3 6 2 5 4 3 3 2 2 0 1 1 2 2 2 2 2 6 7 5 4 15 16 17 14 14 20 2 12 8 13 12 13 12 14
29 28 27 27 26 24 23 22 21 19 18 19 21 22 18 13 9 6 4 10 3 5 5 5 1 4 4 2 2 1 2 2 2 1 3 4 5 6 7 12 15 17 18 8 20 17 10 9 10 13 15 11 11 12
31 29 26 24 22 20 18 15 14 13 11 12 12 8 5 8 5 3 15 7 4 6 5 4 3 3 4 2 2 2 1 1 2 3 4 5 5 8 7 13 14 14 13 16 20 6 13 12 11 12 12 13 11 11
28 26 25 23 20 17 15 12 11 10 9 9 6 6 4 3 10 6 9 7 8 6 7 4 2 2 2 3 3 2 2 1 2 3 5 7 4 5 10 9 10 11 12 13 10 11 14 13 13 11 11 8 7 7
27 26 25 23 23 22 20 15 10 6 9 5 4 2 3 10 5 6 4 6 5 6 5 3 2 3 4 3 2 1 2 2 2 2 4 3 2 5 11 10 10 10 11 10 8 8 8 7 9 8 7 7 6 7
24 24 23 22 21 20 20 21 16 7 2 4 5 4 5 8 5 9 2 5 7 0 6 3 4 4 5 2 3 3 1 3 1 2 5 3 2 7 9 11 11 10 11 11 9 8 7 8 7 6 6 7 7 7
24 24 23 22 22 21 18 16 15 9 5 5 8 8 6 7 12 7 4 5 4 6 5 6 6 3 5 2 2 3 5 2 3 6 3 1 4 7 8 9 10 9 10 9 9 10 9 8 8 8 8 8 7 8
21 21 22 21 20 21 23 19 17 8 9 8 7 9 6 6 3 3 4 4 4 3 6 5 4 2 3 4 2 6 1 4 4 3 2 2 4 6 6 7 7 9 9 9 9 10 9 9 8 8 8 7 7 9
9 18 23 21 20 16 17 19 19 9 7 7 7 5 4 2 1 2 2 2 2 3 3 3 4 2 4 4 4 3 6 4 2 1 1 1 3 5 6 6 7 8 8 8 7 8 8 8 7 7 8 8 8 7
7 7 13 17 17 18 12 12 10 6 7 6 10 4 3 3 4 3 2 3 2 5 2 3 1 4 5 3 7 2 2 1 2 1 1 2 3 4 5 6 7 7 7 7 7 7 7 7 7 6 6 8 7 7
13 4 20 13 12 11 17 8 6 10 7 7 3 1 3 1 3 2 1 3 4 3 2 2 5 1 2 5 4 3 1 1 1 1 1 1 3 4 5 6 6 7 7 7 7 7 6 6 5 5 7 8 6 6
4 5 15 10 6 7 6 8 7 8 8 3 4 3 1 2 2 2 2 3 3 3 3 2 2 6 3 3 3 2 1 2 0 1 2 2 3 4 4 6 6 7 7 7 6 6 5 6 5 5 6 7 5 5
8 10 19 12 8 7 7 8 6 7 0 1 2 2 0 2 2 2 2 3 1 1 2 3 7 3 1 2 2 1 0 2 2 3 2 3 3 4 6 5 5 5 7 6 6 4 4 4 2 3 4 4 3 3
3 20 17 20 10 6 9 6 4 6 3 2 2 3 1 2 3 2 4 3 2 2 7 6 1 3 3 2 3 2 2 1 1 2 1 1 2 4 5 4 4 5 5 4 4 5 3 3 1 2 2 3 3 4
9 10 15 8 7 10 7 3 5 2 1 3 3 2 3 3 4 4 4 2 5 5 3 2 3 3 1 2 1 1 2 2 3 3 3 3 2 2 4 3 3 2 2 2 3 5 4 3 4 3 3 3 3 4
3 12 5 8 8 6 7 2 3 1 3 1 3 2 4 4 5 4 5 6 3 3 4 3 3 2 1 3 3 4 3 3 1 2 4 3 4 3 3 3 1 3 3 4 3 4 4 4 3 3 3 4 4 4
7 7 7 10 9 9 3 3 6 7 5 5 3 5 5 4 3 4 4 3 4 2 2 3 3 2 3 3 3 4 5 4 3 4 4 4 5 5 5 6 2 2 6 6 2 3 4 4 5 5 4 4 3 5
12 12 9 7 7 2 3 7 4 5 4 6 5 4 5 4 7 5 2 4 4 2 1 3 2 1 2 2 2 4 4 5 2 4 4 2 3 5 4 5 3 5 7 5 4 5 4 5 5 4 4 4 4 5
12 13 8 9 5 7 8 7 7 7 3 3 4 4 4 4 4 2 3 5 3 3 3 2 2 3 4 3 3 4 4 5 4 4 4 5 2 4 4 4 6 7 3 2 4 4 5 3 4 5 5 5 7 9
10 6 6 3 4 4 1 3 2 1 0 4 3 3 4 3 4 5 5 5 5 5 6 7 7 3 4 7 4 2 4 6 4 2 5 6 6 5 3 3 4 6 4 5 4 4 6 5 5 7 9 9 9 8
6 3 2 0 3 4 3 2 1 3 0 2 3 4 3 2 5 6 4 4 4 5 6 5 7 6 5 4 4 4 2 5 7 5 1 3 4 5 6 6 7 6 2 4 4 4 6 7 7 8 10 9 8 8
3 2 2 2 2 1 4 1 2 4 4 2 3 1 5 8 7 5 6 2 3 2 2 2 3 3 4 5 3 3 3 3 3 5 6 8 9 8 9 9 10 13 7 6 7 6 7 8 9 9 10 10 11 7
2 1 2 2 2 1 5 6 5 3 1 4 4 4 6 5 4 3 2 0 1 3 1 2 4 2 3 2 3 4 4 4 3 3 5 5 4 5 6 6 5 4 4 5 8 9 10 9 9 9 10 9 9 9
1 0 3 1 2 5 4 3 3 2 1 1 2 5 5 6 7 3 2 2 3 6 5 4 3 4 4 4 3 4 5 7 9 8 5 6 6 3 2 3 4 5 4 3 5 6 9 7 7 5 5 7 6 7
1 2 1 1 5 2 2 1 1 1 2 2 1 3 5 8 10 6 8 6 4 4 3 5 4 5 5 5 5 2 6 5 10 13 10 6 4 4 5 5 5 4 3 4 5 6 7 7 7 8 10 11 13 11
2 0 0 3 4 1 1 1 2 2 1 1 3 1 5 4 7 7 4 5 5 5 11 6 5 9 10 8 3 5 5 1 3 6 9 7 7 7 6 5 3 3 4 5 5 7 8 9 8 9 10 13 12 11
1 0 1 3 4 4 2 3 2 4 3 3 4 4 4 4 9 6 2 7 5 4 6 7 5 1 4 7 7 5 6 5 5 7 9 10 11 10 5 4 4 5 6 6 7 7 9 9 9 10 11 11 12 13
Wind_Direction
71 68 68 73 83 98 124 123 123 114 112 113 116 113 108 106 99 82 77 8 108 97 52 44 80 129 125 138 147 187 95 209 157 192 186 214 221 219 178 226 177 172 217 200 206 183 249 176 148 164 204 359 94 161
81 69 63 77 85 73 118 127 131 122 114 109 101 97 98 98 87 91 81 360 56 77 102 50 76 65 12 328 127 178 177 174 165 186 210 214 221 220 192 240 183 201 193 209 206 199 270 181 351 24 348 162 187 223
89 78 73 76 80 68 106 99 96 96 96 96 95 95 88 76 71 96 105 36 59 94 66 72 114 173 44 10 24 168 201 152 195 66 250 231 235 164 203 223 87 133 339 226 171 18 340 27 358 3 338 44 36 32
86 88 81 78 80 82 74 85 92 91 92 94 93 93 91 88 82 77 79 345 79 105 110 220 145 100 142 169 167 46 66 60 31 248 226 257 245 198 270 22 82 28 321 332 47 11 317 52 14 335 337 358 31 50
87 90 89 85 85 85 88 83 80 84 89 93 98 100 98 93 87 82 78 40 54 114 134 138 282 233 217 198 225 203 196 153 179 222 201 237 259 216 94 100 36 356 8 346 35 9 314 2 345 343 20 10 360 39
91 86 82 82 82 84 83 85 92 92 88 91 95 101 102 70 46 62 51 0 13 62 110 106 262 14 356 314 276 214 203 182 220 230 226 213 71 315 110 85 44 5 346 331 320 318 302 293 11 7 27 24 18 42
90 84 82 84 85 86 87 87 83 83 84 84 97 103 75 63 60 60 109 327 340 20 86 94 10 305 260 288 17 13 89 213 218 254 235 67 23 17 53 71 350 347 334 317 351 336 72 19 347 357 31 46 48 52
84 79 77 75 75 79 83 84 83 82 82 89 93 97 88 85 81 36 356 4 1 89 65 98 261 29 4 328 357 208 218 192 183 14 46 42 29 40 61 344 345 346 335 348 342 332 340 348 2 15 32 31 51 53
68 70 70 69 71 74 76 79 82 83 87 104 99 78 48 35 37 286 337 57 36 87 103 73 105 219 344 332 278 328 220 107 42 50 47 58 19 48 344 338 340 346 348 321 319 318 5 18 13 21 42 31 50 48
54 57 56 58 57 55 52 44 45 54 78 102 51 43 30 314 316 8 9 22 17 350 23 66 323 346 9 358 315 15 5 340 61 57 90 54 74 125 14 348 345 340 332 334 346 359 357 359 0 15 41 44 44 47
50 48 49 47 48 46 40 30 27 92 59 41 52 93 252 343 48 33 44 57 332 27 10 311 327 317 328 47 279 54 289 324 72 37 90 64 44 2 349 344 351 344 343 342 342 342 346 336 345 354 21 35 36 45
44 46 46 45 46 44 40 34 30 56 108 128 128 71 33 29 32 73 5 349 40 344 332 321 315 332 300 329 50 329 139 34 50 10 75 53 26 353 341 345 349 349 346 343 350 345 352 11 3 359 350 16 35 44
44 38 37 37 39 39 40 48 56 78 50 35 44 47 27 319 43 58 343 336 16 345 9 348 320 344 319 4 343 54 51 35 121 42 81 67 350 347 345 343 338 346 350 352 353 360 3 13 16 17 8 6 16 38
42 44 40 33 31 31 34 37 37 63 62 64 53 26 63 355 35 176 190 212 272 349 339 307 275 318 305 2 316 80 284 39 60 53 1 12 356 344 345 339 340 342 350 349 356 358 3 4 12 15 13 6 19 35
42 34 30 25 19 28 39 42 42 50 61 66 53 50 57 249 339 230 217 342 313 309 326 309 281 288 335 45 19 31 37 58 72 205 17 9 360 349 345 342 339 344 347 350 349 357 357 358 3 17 10 9 22 30
30 46 13 17 22 20 32 33 35 68 56 68 43 50 335 48 327 2 2 301 3 328 279 230 283 53 25 84 48 14 44 119 170 167 323 346 348 355 346 341 336 333 336 344 350 352 352 359 4 355 5 14 19 24
55 29 338 358 19 27 37 72 54 50 81 48 31 63 119 132 237 290 347 307 311 286 25 317 54 184 323 55 28 349 55 192 189 259 231 50 351 354 348 343 340 336 346 349 350 357 353 345 358 16 19 359 360 16
46 299 358 10 40 40 34 38 75 68 64 6 69 292 285 197 255 280 284 310 336 358 360 80 71 47 65 119 260 238 335 296 292 343 352 18 12 6 357 340 340 346 347 344 345 341 350 358 12 10 355 348 343 4
40 27 24 24 69 85 65 24 40 90 177 253 308 2 74 261 266 315 308 315 25 360 71 45 64 75 175 220 189 247 19 15 347 335 322 336 359 360 339 338 334 336 337 330 333 328 323 321 316 340 335 335 337 333
57 24 23 33 49 68 61 15 28 82 83 268 39 353 252 225 295 355 335 358 54 59 40 45 141 215 193 227 200 198 205 174 97 342 334 356 11 358 324 310 305 312 310 305 310 319 312 317 295 320 312 318 323 317
29 348 12 49 48 60 85 357 48 102 208 85 271 46 294 2 19 1 332 307 66 41 66 211 207 237 236 262 276 229 251 176 194 178 210 289 274 266 285 271 267 273 263 303 304 307 317 274 284 307 302 284 271 270
319 5 45 24 69 49 77 359 114 267 64 246 22 26 26 13 337 338 300 43 60 234 188 185 223 197 276 262 234 205 213 158 277 307 304 319 296 322 299 243 280 274 242 244 236 255 260 251 258 265 261 269 261 265
13 28 44 17 68 43 310 22 59 1 54 331 8 32 5 343 263 316 59 211 246 234 197 197 221 201 209 299 319 271 206 175 236 232 244 236 248 258 271 280 220 271 307 302 228 272 284 292 298 295 284 302 322 314
30 46 39 41 29 15 344 20 31 23 34 26 26 6 342 296 323 40 69 269 251 301 250 218 148 358 333 355 292 253 219 176 218 281 214 193 275 274 217 249 251 234 230 262 267 268 275 275 280 286 279 284 280 267
63 356 32 2 358 33 29 6 352 30 33 335 19 345 331 353 30 30 216 264 260 243 230 162 154 189 185 254 279 261 204 164 177 221 259 192 200 318 287 248 253 249 182 174 260 241 252 246 250 260 269 259 272 281
67 317 55 214 309 77 211 42 23 317 82 345 258 274 13 54 36 256 235 218 220 200 188 190 185 178 256 213 226 253 238 168 128 179 266 184 193 194 241 281 306 297 188 192 186 236 259 259 263 277 284 278 264 262
60 327 333 258 120 117 64 31 80 94 338 234 263 9 46 33 256 251 268 219 200 210 193 173 168 185 200 197 229 248 184 170 189 199 212 208 221 206 204 236 254 246 173 186 202 214 257 278 280 278 281 287 272 258
136 136 118 263 49 4 141 108 170 216 228 209 85 272 182 199 237 230 206 233 184 140 146 203 215 193 195 207 196 164 206 207 280 287 273 253 235 225 219 229 241 254 251 224 226 225 229 243 257 268 270 274 284 276
69 290 107 354 347 240 216 193 223 235 170 138 165 246 243 237 251 247 278 290 103 109 157 241 254 188 265 259 234 215 184 159 135 268 278 270 308 283 195 209 225 231 230 240 255 256 254 254 261 264 272 278 286 293
278 191 92 93 174 238 238 166 230 258 243 216 286 300 278 266 249 205 169 159 184 209 210 197 170 163 218 179 261 293 208 191 197 199 215 244 233 233 186 219 244 255 244 238 269 277 278 284 285 287 275 280 278 279
123 59 53 182 249 242 233 278 301 303 345 299 291 203 266 305 302 240 212 208 192 131 144 234 232 204 205 217 208 231 277 207 210 220 233 259 270 262 260 246 241 231 219 236 254 267 276 284 282 287 290 291 292 291
32 137 174 293 291 338 358 339 299 279 268 312 258 249 295 316 271 276 182 131 131 195 224 205 203 240 204 227 204 222 231 203 195 211 219 231 244 251 255 254 232 222 246 255 257 263 268 270 281 281 283 286 286 287
84 78 232 306 311 330 352 341 292 299 219 257 245 201 229 231 254 290 260 218 207 204 203 207 225 181 194 202 214 221 220 231 234 239 242 242 244 252 251 230 228 233 244 252 254 254 263 270 280 288 297 299 299 300